Location: Briis
(48.6240°N, 2.1211°E)
Time: 00:32:30
(UTC+00:00)

CZ-2D R/B - Pass Details

Date: 25 September 2020
Orbit: 791 x 846 km, 98.7° (Epoch: 23 October)

Event Time Altitude Azimuth Distance (km) Brightness Sun altitude
Rises 03:09:06 0° 4° (N) 3,346 5.8 -25.1°
Reaches altitude 10° 03:12:02 10° 348° (NNW) 2,401 4.7 -24.7°
Enters shadow 03:14:54 19° 316° (NW) 1,828 3.8 -24.3°
